Wind_Speed
12 11 11 10 9 8 8 8 7 7 7 6 8 8 7 7 5 4 5 4 3 2 2 4 4 3 3 3 4 7 9 9 8 8 9 9 9 10 10 9 9 8 8 8 8 9 10 10 11 13 14 15 16 17 18 18 19 19 19 20 21 21 22 22 22 22 23 23 24 24 24 23 23 22 21 21 20 21 20 20 21 21 21 21 21
12 11 12 11 10 8 7 7 6 6 7 7 9 9 9 7 6 5 6 3 0 1 2 4 4 4 4 3 4 7 8 8 8 8 8 9 9 9 9 9 8 8 8 8 9 10 11 12 13 14 15 17 18 19 20 20 21 21 21 22 22 23 23 23 24 24 24 24 24 24 24 25 24 24 23 22 21 21 21 21 21 21 22 22 22
12 13 15 12 8 6 4 6 6 6 7 8 10 9 9 9 7 5 3 1 1 2 2 3 4 5 5 4 5 7 8 8 8 8 7 8 8 8 9 8 7 8 9 10 11 12 13 14 15 17 18 19 20 21 22 22 23 23 23 23 24 24 25 25 25 26 25 25 25 24 24 25 25 25 25 24 23 22 22 22 21 21 22 22 22
13 16 14 7 4 5 5 6 6 6 6 8 10 10 10 10 7 5 3 3 2 3 3 4 5 5 6 6 6 8 8 8 9 8 7 7 7 8 9 9 9 9 11 12 14 14 15 16 18 19 20 21 23 24 25 25 25 25 25 25 25 25 26 26 26 26 27 26 26 25 24 25 25 26 26 26 25 24 23 23 22 22 21 21 22
16 15 10 7 7 6 6 6 7 6 6 8 9 9 10 7 6 5 4 4 3 3 4 5 5 5 6 7 7 8 8 8 9 9 9 9 10 10 10 10 10 12 13 14 16 16 17 18 20 22 22 24 25 26 27 26 26 26 26 26 26 26 27 27 27 27 27 27 26 25 25 25 26 26 26 27 27 26 25 25 24 24 22 21 22
15 13 9 9 9 7 6 7 8 8 9 9 8 9 9 6 6 7 5 4 4 4 5 5 6 6 7 7 7 8 7 8 8 10 10 11 14 14 14 14 13 14 15 14 15 17 20 21 22 24 25 25 26 27 27 27 26 26 26 27 27 28 28 28 28 28 27 27 26 26 25 24 25 26 26 27 28 28 27 27 26 25 24 22 22
13 12 10 10 9 8 7 7 7 8 10 9 7 10 9 9 9 5 4 4 4 5 6 6 6 6 7 8 7 7 6 7 8 10 11 12 14 16 17 18 17 18 18 17 17 18 20 23 24 25 26 26 27 27 27 27 26 27 27 28 28 28 28 28 28 28 27 27 26 26 25 24 25 25 25 26 28 28 28 29 28 27 26 24 23
14 12 11 10 10 9 8 7 8 9 10 8 6 8 9 9 8 2 2 5 5 5 6 6 7 7 7 7 7 6 6 7 8 10 12 13 14 15 17 18 19 20 21 21 21 22 22 24 25 26 27 27 26 26 27 27 27 28 28 28 28 28 28 28 28 28 27 27 27 26 25 25 25 25 25 26 27 28 29 29 30 29 28 27 26
15 12 11 11 11 11 9 9 9 9 9 6 5 8 9 9 7 3 4 7 6 7 6 6 7 7 6 6 6 7 7 8 9 10 12 14 15 16 17 18 19 19 20 22 23 24 25 25 25 25 25 26 26 26 27 28 28 28 29 29 28 28 28 28 28 28 28 27 27 27 26 26 26 26 25 26 27 28 29 30 30 30 30 30 29
14 12 11 12 12 11 9 9 9 7 6 6 6 8 9 9 6 3 5 7 7 8 7 6 7 7 6 6 7 7 9 10 10 11 13 15 16 16 17 18 19 20 20 22 23 24 25 26 26 25 25 25 26 26 27 28 28 28 29 29 29 29 29 29 29 29 29 28 28 28 27 28 28 27 26 26 27 28 29 30 31 31 31 31 32
13 12 12 12 11 10 10 9 8 6 6 7 7 8 8 7 4 4 7 8 7 8 8 7 7 7 6 7 8 9 10 11 12 14 15 16 17 17 17 18 19 20 21 22 23 24 24 25 25 26 26 26 27 26 26 27 27 27 28 29 29 29 29 30 30 30 30 30 30 29 29 28 28 28 28 27 27 28 29 30 31 31 32 32 33
14 13 12 12 11 11 10 9 7 6 6 6 6 6 5 5 5 7 8 7 6 7 7 7 7 7 7 8 9 10 12 13 14 15 16 16 17 17 18 19 19 20 21 21 22 23 23 24 25 26 26 26 26 26 26 27 27 27 28 29 29 30 30 31 31 31 31 31 31 31 30 30 29 28 28 28 28 28 28 29 30 31 32 32 33
15 14 14 13 12 12 11 9 7 5 5 5 6 5 4 5 6 8 8 6 6 6 7 7 8 8 9 9 9 11 13 14 15 16 16 16 17 18 19 19 20 20 20 20 21 22 23 24 24 24 25 25 26 27 27 27 27 28 28 29 30 30 31 31 32 32 33 32 32 32 32 31 31 30 29 29 29 29 29 29 30 31 32 32 33
15 15 14 14 14 14 12 10 8 6 6 6 6 5 5 5 6 7 7 6 6 6 7 8 10 10 10 10 11 12 13 13 14 16 16 17 18 19 19 19 19 19 20 20 21 22 22 23 23 24 24 25 26 26 27 27 27 27 28 29 30 31 32 33 33 33 34 34 34 34 34 34 33 33 32 31 30 31 30 30 30 31 32 33 33
15 15 15 15 15 14 12 9 8 8 8 7 6 5 4 5 6 7 7 6 6 7 8 9 11 12 12 12 13 14 14 13 14 15 17 18 18 19 19 19 19 19 20 21 21 21 22 22 23 23 24 25 25 25 26 26 27 28 29 30 31 32 33 33 34 34 35 36 36 37 37 37 36 35 35 34 32 32 31 31 31 31 32 33 34
17 17 17 16 15 14 12 10 8 8 8 7 6 5 5 6 7 7 6 5 6 8 9 10 12 13 13 14 15 16 16 15 14 16 17 17 18 18 18 18 19 19 20 20 20 21 21 22 23 23 23 23 24 24 26 27 28 29 31 32 33 33 33 34 34 35 36 36 37 38 38 38 38 38 37 37 35 34 32 32 32 32 32 33 34
19 19 18 16 15 14 12 10 9 8 8 7 6 6 7 8 7 6 6 6 8 9 10 11 12 13 13 15 17 17 17 17 16 16 16 16 17 18 17 18 18 18 19 20 21 21 21 22 22 22 22 23 24 25 27 29 30 31 32 33 33 34 35 36 36 37 37 38 38 39 39 40 40 40 39 39 38 37 35 33 33 32 33 34 34
19 19 18 17 15 14 11 10 9 8 8 8 7 8 8 8 7 8 9 9 10 10 10 11 12 12 13 15 17 18 18 18 18 16 16 16 16 17 17 17 18 18 19 20 21 21 22 22 22 22 23 24 25 26 28 29 30 31 32 33 34 35 37 37 38 38 39 40 41 41 41 41 42 41 41 40 40 39 37 36 34 33 34 34 35
18 18 18 17 15 13 12 11 9 9 9 8 9 10 10 8 9 10 11 11 11 11 11 11 11 12 13 14 16 17 17 18 18 17 16 15 15 16 17 17 18 19 19 19 20 21 21 20 20 21 23 23 25 27 28 30 31 33 34 35 36 37 38 38 39 40 41 42 42 42 42 42 41 41 40 39 39 39 39 37 35 34 35 35 35
17 17 18 16 15 14 13 12 10 9 9 10 10 11 10 9 10 11 11 12 12 11 11 11 12 12 13 14 15 16 17 17 17 17 17 16 14 14 15 17 18 18 17 18 19 18 18 19 20 22 23 25 27 30 31 32 32 33 34 36 37 37 38 39 40 41 42 43 43 43 42 41 40 39 38 36 36 36 37 37 36 35 35 36 36
16 17 17 15 15 14 13 12 10 9 10 11 11 11 9 10 10 11 12 12 11 11 12 12 11 12 12 13 14 15 15 15 16 16 17 17 16 15 14 14 15 16 16 16 17 17 18 20 22 24 25 28 30 31 31 31 32 33 34 35 36 37 38 39 41 42 44 45 45 43 42 40 39 37 36 34 33 32 32 33 34 35 35 36 36
15 15 15 15 16 15 13 11 9 9 10 11 10 9 9 10 11 12 12 11 11 12 12 11 11 12 12 13 13 13 13 14 14 14 15 16 16 16 16 14 13 14 17 17 16 18 20 22 23 25 27 28 29 29 30 30 31 33 34 35 37 38 39 41 43 45 47 48 47 45 42 40 38 37 36 34 32 30 29 29 29 31 33 34 36
13 13 15 16 16 15 13 11 9 10 11 10 9 9 10 11 12 12 12 12 12 12 11 11 11 12 12 13 12 12 13 13 13 13 13 14 15 15 16 18 18 17 17 18 18 19 21 23 24 26 27 28 28 28 28 30 31 32 33 35 37 39 40 43 45 47 49 50 49 47 43 41 39 37 36 35 33 31 28 27 26 27 28 31 33
14 15 16 17 17 17 14 12 11 11 11 11 11 11 12 13 13 13 12 12 12 11 11 11 11 12 12 12 12 12 12 12 11 11 12 12 14 15 16 19 21 20 18 18 20 21 21 22 24 25 25 26 26 26 27 29 30 31 33 35 37 39 41 43 45 47 49 50 50 48 44 42 40 38 36 35 34 32 30 28 26 24 24 26 29
16 17 19 19 18 17 16 14 13 12 12 13 14 14 15 15 14 13 13 12 11 10 11 11 11 12 11 11 11 11 10 10 10 11 12 13 14 15 16 16 17 19 19 19 19 20 19 20 22 23 24 23 24 25 27 28 29 31 33 35 37 39 40 43 45 46 47 49 49 47 44 41 39 38 36 34 34 33 31 29 26 24 23 23 24
18 19 20 18 16 17 18 16 14 13 15 16 16 16 16 15 14 13 12 11 10 10 10 11 11 11 11 11 10 9 9 9 10 11 12 14 14 15 14 14 14 15 17 17 17 17 18 19 20 21 21 22 23 24 26 27 30 32 33 34 36 38 40 42 44 44 46 48 49 48 45 42 40 38 37 35 34 32 31 30 28 25 24 23 22
18 19 19 16 15 17 17 15 14 14 16 17 17 17 15 14 13 13 12 11 10 10 10 11 11 11 11 10 8 8 9 10 11 13 14 14 14 14 13 12 12 13 13 14 15 16 17 18 19 19 20 21 23 24 26 28 30 31 33 34 35 37 39 41 42 44 46 47 49 48 47 44 42 39 37 36 34 33 32 31 29 27 25 23 22
16 16 18 18 17 16 15 14 14 15 16 16 16 15 14 14 13 12 11 10 10 10 10 10 11 11 10 8 7 8 9 11 12 13 14 13 13 12 12 12 12 12 12 13 14 14 16 17 18 18 19 21 23 25 26 28 29 31 32 33 34 36 38 39 41 43 45 47 48 47 46 44 43 42 40 38 37 35 34 32 31 29 26 24 23
17 19 21 19 16 14 14 15 15 16 16 15 14 14 13 13 12 11 10 10 10 10 10 11 11 10 8 6 7 8 9 11 12 13 13 12 12 11 11 12 11 11 12 12 13 14 15 16 17 18 19 21 22 24 26 27 28 30 31 32 33 35 36 38 40 42 43 44 45 46 45 44 42 42 41 40 40 38 36 34 32 30 28 26 25
21 22 18 15 14 15 15 15 15 15 14 14 13 13 13 13 12 11 10 10 10 10 10 11 10 8 6 6 7 8 10 11 12 12 12 11 11 11 11 11 11 10 11 11 12 13 14 15 16 18 19 20 22 24 26 27 27 28 30 31 32 33 35 37 38 40 41 42 43 44 45 44 42 41 40 40 40 39 37 35 32 31 29 27 26
25 20 16 15 15 15 15 15 14 13 13 13 13 13 13 12 11 10 10 10 10 11 11 10 9 7 6 7 7 9 10 11 11 11 11 11 11 11 11 10 10 10 10 11 12 12 13 14 16 18 19 21 22 24 25 27 27 28 29 31 32 32 33 35 37 38 39 41 42 43 44 44 43 41 39 38 37 37 36 35 33 31 29 27 26
23 18 17 16 16 15 14 13 13 13 14 13 13 13 13 12 12 11 11 10 11 11 11 10 8 7 6 7 8 9 10 10 11 10 10 11 11 11 11 10 10 9 10 11 12 12 13 14 16 17 19 21 22 24 25 26 27 28 28 30 32 32 32 34 35 36 37 39 40 42 43 43 42 41 40 38 35 34 33 33 32 31 30 28 26
21 18 17 16 15 14 13 13 13 14 14 13 13 13 13 13 12 11 11 11 11 11 10 9 8 7 6 7 8 9 9 10 10 10 10 11 11 11 11 10 9 9 10 11 12 12 14 15 16 18 20 21 23 24 25 26 27 28 28 30 31 32 33 33 34 35 36 37 39 41 43 43 43 43 43 41 38 34 31 30 30 30 29 28 26
19 17 16 15 14 13 13 13 14 14 14 14 14 13 14 13 12 11 11 12 12 11 10 9 8 7 6 7 8 8 9 10 9 9 10 11 11 11 10 9 9 9 10 11 11 12 14 15 17 18 20 22 23 25 26 26 27 28 29 30 31 31 32 33 35 35 36 37 38 41 43 45 46 45 44 42 39 35 32 30 29 28 27 27 27
15 14 14 15 14 13 13 14 14 14 14 14 14 14 14 13 12 12 12 12 12 11 10 9 8 7 7 7 8 8 9 9 9 10 10 11 11 10 10 9 9 9 11 11 12 13 14 15 17 18 20 22 24 25 26 27 27 28 29 30 31 31 32 33 35 36 37 38 40 42 45 46 47 46 45 44 41 37 33 31 30 28 27 27 27
13 14 15 14 13 13 14 14 14 14 14 14 14 14 14 13 12 12 13 13 13 12 11 9 8 8 7 7 8 9 9 9 9 10 11 11 11 10 9 9 9 10 11 11 12 13 14 16 17 19 21 23 24 26 27 28 28 28 29 30 31 32 32 32 34 35 37 39 40 43 45 47 47 47 46 46 44 40 36 33 31 29 28 26 26
14 15 15 14 13 14 14 14 13 14 14 14 14 14 13 13 13 13 14 13 13 12 11 9 9 8 7 8 8 9 9 9 10 10 10 11 10 10 10 9 10 11 11 12 12 14 15 16 18 20 21 23 24 26 27 29 29 29 29 30 31 32 33 32 33 35 37 39 41 43 46 47 47 47 47 47 47 45 40 36 33 31 30 28 27
15 15 15 14 15 15 14 13 13 13 13 13 14 14 13 13 13 14 14 14 13 12 11 10 9 8 8 8 8 9 9 9 9 10 10 11 10 10 10 10 11 11 11 12 13 15 16 18 19 20 22 23 25 26 28 29 31 32 31 31 31 32 34 34 34 35 37 38 40 42 45 47 46 46 47 48 48 47 44 39 35 33 32 31 29
16 16 16 16 15 14 14 13 13 13 13 13 14 14 14 14 15 15 15 14 13 12 11 10 10 9 8 8 8 9 9 9 9 10 10 10 10 11 11 11 11 11 11 12 14 15 17 19 20 21 22 23 25 27 28 29 30 32 33 34 33 33 34 35 35 35 36 37 39 41 43 44 44 46 47 49 49 49 47 43 38 35 33 32 32
17 17 17 16 15 14 14 13 13 13 13 14 14 15 15 16 16 16 16 14 13 12 11 11 10 9 9 9 9 9 9 9 9 10 10 10 11 11 11 11 12 12 12 13 14 16 18 20 21 22 23 24 26 27 29 30 31 32 34 35 35 34 34 34 35 35 35 36 38 39 41 43 44 45 47 48 49 49 49 47 44 40 36 34 33
19 19 18 16 16 15 15 14 14 14 14 15 15 15 16 17 17 17 16 14 13 12 11 10 10 11 11 10 10 10 9 9 9 9 10 10 11 11 11 11 12 12 13 14 15 16 18 20 21 22 24 25 27 28 29 31 32 33 34 34 35 35 34 34 34 35 36 37 37 38 41 43 44 44 46 48 49 50 50 51 50 47 43 38 35
21 20 18 17 17 17 17 16 15 15 16 16 16 16 17 18 18 18 16 15 13 11 10 10 10 12 12 12 11 10 9 8 8 9 10 10 10 11 11 11 12 12 13 15 16 17 19 20 22 23 25 26 27 29 30 32 33 34 34 34 35 36 36 35 35 36 37 37 37 38 40 41 42 44 46 47 48 49 50 51 51 50 47 43 38
21 20 19 19 19 19 19 18 18 18 18 17 17 17 18 19 20 19 18 15 13 11 11 11 12 12 13 12 12 10 8 8 8 9 10 10 10 10 11 11 12 12 14 15 17 18 20 21 22 23 25 26 27 29 30 31 32 33 34 34 35 36 37 38 38 38 38 38 37 37 38 39 41 43 44 46 47 48 49 50 51 52 51 48 43
20 20 20 21 21 21 21 20 19 19 18 17 18 19 20 21 21 21 19 16 14 13 12 12 12 12 13 13 12 10 8 8 8 9 9 10 10 10 10 11 12 13 15 16 17 19 20 21 22 24 25 26 28 29 31 32 32 32 32 33 34 35 37 38 38 38 38 38 38 37 37 37 39 42 43 45 46 48 49 50 51 51 51 50 45
21 21 21 22 22 22 22 21 20 20 18 18 18 19 21 22 22 22 20 17 15 14 13 13 12 12 13 13 12 10 8 8 8 9 9 9 9 10 10 11 12 13 14 15 16 18 19 20 22 24 25 26 28 29 31 31 32 32 33 34 34 35 36 37 38 38 38 39 39 38 37 36 37 40 43 44 46 48 49 49 49 49 49 49 44
21 21 22 23 23 23 23 22 21 19 17 18 19 19 21 22 22 23 21 19 18 16 14 14 13 13 13 13 12 11 9 8 8 9 9 8 9 9 10 10 11 12 14 15 16 17 19 21 23 24 25 26 28 29 29 30 32 33 34 35 35 35 36 35 35 36 36 37 39 39 39 37 36 38 41 44 45 47 48 47 46 47 47 47 44
22 22 23 24 24 24 24 23 20 18 17 19 20 19 21 22 23 24 22 21 19 17 16 15 14 13 13 13 13 11 9 9 9 9 9 8 8 8 9 9 10 12 13 14 16 17 19 20 21 22 24 25 26 27 29 31 33 34 35 35 35 35 35 34 33 34 35 36 37 38 39 38 36 36 39 42 44 45 48 47 45 45 46 47 44
23 23 24 25 25 25 25 23 20 19 20 21 20 20 22 23 24 25 23 22 21 18 17 16 15 14 14 14 13 11 10 9 10 9 9 8 7 8 9 10 10 12 13 14 15 17 18 19 20 22 23 24 24 27 30 32 34 34 34 34 34 35 34 33 33 34 35 36 36 37 38 38 37 36 36 40 43 46 48 47 45 44 45 47 45
24 24 25 26 26 26 25 23 21 21 22 21 20 21 23 24 24 25 24 23 21 19 18 17 16 15 15 14 14 12 10 10 10 10 9 8 7 8 9 10 11 12 13 14 15 16 17 18 19 20 21 22 25 28 30 32 33 34 34 34 34 34 33 33 34 34 35 35 36 37 37 37 38 38 36 37 41 45 47 47 46 45 45 47 47
25 26 26 27 26 26 25 23 22 23 23 22 22 23 23 23 24 25 24 23 21 19 18 18 17 16 16 16 15 13 11 11 11 10 10 8 8 8 9 10 11 12 13 14 15 15 16 16 17 19 20 22 25 28 30 31 32 33 33 33 33 32 32 33 34 34 33 34 36 37 36 36 37 38 38 37 38 42 45 47 48 47 47 48 49
27 28 28 27 27 26 26 24 23 25 24 23 23 23 23 23 24 24 24 23 21 19 19 19 18 17 17 17 15 13 12 12 12 11 10 9 8 8 9 10 11 12 13 14 15 15 15 16 17 18 20 23 25 26 28 29 30 30 30 30 30 31 32 32 33 33 33 34 36 36 36 37 37 36 38 40 41 41 43 46 48 50 50 50 51
Wind_Direction
266 264 259 257 252 240 230 221 217 219 218 219 221 217 214 209 204 223 225 224 254 314 334 308 312 316 300 318 321 303 301 304 304 305 307 312 320 320 321 323 324 330 334 337 340 338 338 336 334 332 331 331 331 331 331 332 332 331 331 330 330 329 327 326 324 322 320 318 315 313 311 308 306 305 303 301 300 300 300 300 298 293 287 282 280
261 262 256 246 231 221 218 221 222 223 234 245 238 227 227 217 190 214 234 214 243 332 301 296 311 310 304 321 316 299 299 300 297 300 309 314 317 315 319 323 321 324 325 326 328 328 328 327 326 326 326 326 326 325 325 326 326 326 325 324 324 323 322 322 322 321 320 318 315 313 309 305 303 300 298 297 295 295 295 296 297 297 292 284 280
258 255 247 235 223 225 235 245 247 241 246 254 251 246 246 231 190 192 243 246 273 276 272 289 297 301 308 318 305 293 292 295 295 299 305 308 311 312 316 325 326 320 319 320 320 321 322 322 322 322 323 323 322 322 321 322 321 321 320 319 319 318 318 318 319 318 318 317 314 312 308 303 300 296 294 292 290 290 290 291 292 293 292 288 282
252 248 249 260 284 278 265 257 254 253 261 262 260 260 247 223 178 159 220 238 247 260 265 272 279 290 298 298 290 288 290 291 293 296 297 302 307 308 311 320 323 317 317 317 315 316 317 318 320 320 320 320 320 319 318 318 318 317 317 317 317 316 316 316 315 315 314 314 311 309 307 302 298 295 292 290 287 286 285 285 286 285 287 288 284
251 255 268 294 284 267 262 265 263 261 263 259 259 261 249 221 170 161 201 232 246 254 264 268 272 275 274 279 283 283 284 283 287 291 297 310 312 310 311 313 313 312 311 312 312 313 313 314 317 318 318 318 318 317 316 317 317 318 317 318 318 317 316 315 314 312 311 310 308 307 305 300 297 294 292 289 286 283 281 281 281 282 283 284 282
260 275 287 277 271 276 276 267 262 266 269 263 246 241 249 243 209 180 179 225 249 258 268 265 264 266 268 277 279 276 276 279 281 286 300 311 310 312 316 314 313 309 306 307 307 308 311 313 316 317 316 317 317 316 315 316 317 318 318 318 318 317 316 315 313 312 310 309 308 307 304 300 296 294 292 289 286 284 280 278 278 278 279 278 277
270 281 284 276 277 282 279 270 267 275 276 263 237 236 247 244 230 187 158 234 260 266 267 263 266 271 271 272 272 273 276 279 282 292 304 307 305 309 311 312 314 312 309 309 305 306 310 313 315 316 315 316 316 316 315 316 317 318 318 318 318 317 316 314 314 313 311 310 309 307 305 301 297 294 291 288 286 284 281 278 276 275 274 274 274
268 272 282 287 282 276 281 286 282 279 271 256 239 247 247 233 230 200 197 250 266 269 266 266 270 271 267 265 268 272 274 278 287 299 304 304 304 305 306 308 311 312 312 313 312 312 312 313 315 315 315 316 316 315 315 317 319 319 320 320 319 318 317 316 315 314 313 312 311 309 307 304 300 296 293 289 287 285 282 279 275 273 272 270 270
267 273 280 282 278 277 279 283 286 283 270 253 232 238 239 231 225 207 239 261 270 267 265 259 260 263 258 253 260 271 280 287 295 299 299 300 302 302 305 308 309 310 311 313 314 314 315 316 316 315 315 315 316 317 318 320 322 323 322 322 322 320 320 319 318 316 315 314 312 311 310 306 303 300 296 291 288 285 283 280 277 274 270 268 268
269 276 275 272 275 278 279 281 286 282 259 244 226 224 229 231 225 207 242 265 272 269 264 253 256 260 253 252 260 273 285 295 303 302 299 300 302 304 306 308 310 312 313 314 315 316 317 316 316 316 316 316 318 320 322 323 325 326 325 324 324 324 323 322 321 320 319 318 316 314 312 308 305 303 299 294 289 286 283 280 278 276 271 267 266
268 273 273 273 275 279 281 283 282 268 246 240 224 218 223 228 239 250 256 265 271 270 264 255 259 262 260 268 279 289 295 302 307 303 301 303 305 307 308 311 314 316 317 318 318 318 317 316 316 317 318 320 321 324 326 327 328 328 327 327 327 327 326 326 325 324 323 321 319 317 314 310 307 304 301 296 291 286 282 280 278 277 274 269 266
266 269 270 272 276 277 280 284 282 261 242 239 225 219 227 229 242 255 264 274 275 271 265 258 262 267 272 281 292 301 304 307 306 304 305 307 308 310 313 315 317 318 319 319 318 317 316 316 318 320 322 324 326 328 330 330 331 332 332 332 332 331 330 330 328 327 326 325 322 320 317 314 311 307 303 299 294 288 283 280 278 277 275 272 267
267 266 267 273 276 275 277 279 275 257 231 230 222 219 234 238 245 258 269 276 272 269 268 268 273 277 282 290 296 300 302 305 306 307 308 307 310 313 316 318 319 320 320 318 317 316 318 319 321 323 325 328 330 332 334 335 336 336 336 335 335 334 333 332 331 330 328 326 323 321 318 316 313 309 305 300 296 292 287 282 278 276 275 273 270
268 267 268 272 274 275 276 272 263 250 226 215 216 221 233 238 249 263 265 259 256 259 267 275 282 285 290 296 298 298 300 304 307 309 308 309 314 316 319 322 322 321 319 318 318 319 321 323 325 327 330 333 335 337 338 339 339 339 338 337 337 336 335 333 331 329 326 324 321 319 316 314 312 309 306 302 297 293 290 285 280 276 275 273 270
269 269 269 270 274 276 272 261 245 233 218 209 219 232 237 240 245 251 249 246 249 257 268 277 284 290 297 301 301 302 305 309 310 309 310 313 317 319 322 323 320 319 320 321 322 323 324 327 330 334 336 338 339 340 340 340 340 340 339 338 338 336 334 332 329 327 325 323 321 318 315 313 310 308 304 301 298 294 291 287 282 277 274 272 270
269 269 271 271 274 276 267 249 226 214 212 216 233 242 238 239 236 232 233 244 257 265 274 280 286 294 301 303 303 305 311 314 313 312 315 318 319 321 321 319 318 320 322 323 325 327 329 333 337 340 340 341 341 341 340 340 341 341 341 340 338 336 334 332 331 329 327 324 322 319 316 313 310 307 304 301 297 294 290 287 283 279 275 272 270
268 270 272 271 271 269 255 236 217 211 218 229 245 245 237 238 239 242 246 256 266 273 281 285 290 297 303 305 306 310 314 315 315 317 319 319 319 319 318 317 320 324 325 327 328 331 335 340 343 342 341 341 341 341 342 343 344 344 344 341 338 336 336 335 333 331 328 326 323 321 318 315 311 308 305 301 298 295 291 286 282 279 276 272 270
268 269 271 270 266 259 238 220 215 217 224 237 249 244 238 240 246 255 261 266 273 280 287 289 293 299 304 306 307 311 314 314 316 318 317 317 317 316 316 320 325 328 328 330 331 336 342 345 343 341 341 342 342 344 346 347 347 346 343 340 339 339 339 337 334 332 330 328 325 322 319 316 312 308 304 301 298 294 291 287 283 279 275 272 269
266 267 269 267 259 247 223 209 213 221 231 242 247 240 236 238 242 252 262 270 277 284 289 292 296 301 304 305 306 309 311 312 314 313 312 314 314 315 320 326 328 329 331 332 336 343 345 340 337 340 342 343 346 349 351 350 348 346 344 343 343 342 340 338 336 334 332 330 327 324 322 319 314 310 306 302 298 294 291 287 283 278 274 272 269
266 268 269 260 245 233 212 202 211 224 237 243 238 234 234 236 241 252 264 272 280 286 291 295 298 301 302 303 305 307 308 310 311 310 310 311 314 320 327 329 328 330 333 337 343 343 335 332 339 345 347 349 353 353 352 351 349 348 348 347 346 344 341 340 338 337 335 333 331 329 326 322 318 314 310 307 302 297 293 289 285 279 274 271 269
266 269 265 246 228 219 204 197 207 227 241 240 233 234 239 242 249 260 270 277 283 289 293 296 299 300 301 303 304 304 305 307 308 308 310 315 323 328 328 328 330 330 335 346 346 333 330 341 349 351 353 356 356 354 352 352 352 352 351 349 347 346 344 342 340 340 340 339 337 334 330 325 321 317 314 312 308 302 297 293 289 283 276 271 268
266 263 247 227 216 209 198 193 206 229 236 231 232 237 246 254 262 270 277 282 287 290 293 296 298 298 301 302 301 301 302 301 302 305 311 319 325 327 326 329 335 337 341 347 342 335 342 353 356 356 357 358 356 354 354 354 355 354 352 350 349 348 345 343 344 345 345 345 343 339 336 331 327 322 318 316 313 309 304 298 294 287 280 274 268
260 245 226 218 211 200 188 185 200 219 221 221 229 240 257 271 276 278 282 286 288 291 292 294 296 299 301 301 300 298 297 296 299 307 315 320 323 327 331 335 340 347 349 343 342 351 357 356 357 359 358 357 356 355 355 355 355 352 350 350 350 348 346 346 347 349 349 349 347 344 341 338 335 329 324 321 317 313 308 302 297 292 285 277 270
249 234 219 215 210 196 183 184 199 211 213 215 223 240 267 280 281 282 284 286 288 289 291 293 296 299 300 299 297 294 293 297 304 313 319 324 330 335 339 341 341 343 346 347 351 0 3 357 356 358 357 356 355 353 354 354 351 348 349 350 348 347 348 349 351 352 351 350 349 346 343 340 337 334 330 325 321 317 312 306 300 296 290 281 274
242 229 217 214 212 201 190 196 210 217 217 218 227 249 271 279 280 282 283 284 287 288 289 293 296 298 297 294 291 292 296 304 314 322 329 334 339 340 342 344 341 340 345 355 1 -0 359 357 355 356 356 355 353 352 353 351 347 347 348 349 347 347 348 351 353 352 351 350 349 347 343 339 337 336 333 329 325 322 317 311 303 297 292 286 279
235 226 219 214 212 203 197 204 218 222 222 226 240 258 271 276 279 281 282 284 286 286 289 292 294 294 291 288 289 296 307 317 327 334 338 339 340 341 342 341 340 343 347 354 359 356 354 355 355 354 353 351 350 351 350 348 346 347 348 348 348 347 349 353 354 352 351 351 350 348 345 342 339 337 336 332 328 325 322 318 310 302 295 288 283
233 225 215 203 195 195 199 211 224 228 231 239 251 262 270 275 279 280 282 283 283 285 288 289 289 286 283 286 295 309 321 331 337 339 339 338 336 337 338 338 340 347 349 349 354 354 351 351 353 353 351 348 347 348 348 346 346 347 348 348 348 348 351 354 353 353 352 353 352 350 347 344 342 340 338 336 333 329 326 323 318 311 302 294 287
226 206 186 178 183 196 211 227 235 237 241 248 256 264 270 274 277 277 278 279 280 282 284 284 282 280 281 292 310 323 331 337 339 338 335 334 333 335 337 341 344 346 347 348 351 351 349 349 350 350 348 346 345 346 345 345 347 349 349 349 349 350 353 353 353 354 354 355 355 352 348 345 343 341 340 338 337 334 330 325 322 318 312 303 293
204 175 169 178 195 213 228 235 237 240 246 254 261 266 270 272 273 274 274 274 277 279 280 279 277 278 287 305 319 328 335 337 336 333 330 330 333 338 340 341 343 343 344 347 348 348 348 348 347 346 345 343 343 343 343 345 349 350 350 350 351 354 354 352 353 355 356 357 357 355 351 348 345 342 340 338 337 336 333 328 323 320 316 311 303
179 167 177 196 210 223 230 233 238 245 253 259 263 266 268 270 271 271 271 272 274 275 275 276 276 280 296 312 321 330 334 334 331 328 328 333 337 339 338 336 338 340 342 346 345 345 347 346 343 343 342 340 341 342 342 347 351 352 351 350 353 358 356 353 355 357 357 359 0 359 356 352 348 344 341 337 335 335 334 331 327 323 318 314 309
169 172 190 204 213 224 230 236 244 252 257 260 263 265 266 269 270 268 268 271 272 272 273 275 277 285 299 311 321 329 331 330 327 326 331 336 336 333 331 331 335 338 342 343 341 342 344 343 341 340 338 337 341 343 344 348 351 353 353 351 354 359 357 355 356 357 358 0 2 4 1 356 352 349 345 341 336 334 334 333 331 327 322 316 311
171 182 200 212 220 228 234 242 250 255 258 261 263 264 266 268 268 266 268 270 268 269 272 276 279 287 298 309 320 326 327 326 325 329 335 335 330 326 325 328 333 338 341 339 338 340 342 341 340 337 335 337 341 343 346 350 351 353 354 352 354 358 357 356 357 357 359 1 4 6 6 1 357 355 352 348 343 338 335 332 331 329 325 319 313
177 192 210 221 226 232 240 247 253 256 258 261 262 264 266 267 266 266 268 268 266 268 273 276 278 282 293 308 318 322 324 324 325 333 334 327 322 321 321 327 332 337 338 336 337 342 341 339 339 336 335 338 342 344 346 350 351 352 353 353 354 356 356 356 357 358 359 2 5 7 8 5 2 1 358 354 350 345 340 335 331 328 325 320 315
187 205 221 228 231 239 246 251 255 256 259 262 263 264 265 265 265 266 266 264 264 269 272 272 272 277 290 306 315 320 322 323 327 331 325 319 317 318 320 326 333 336 334 334 338 341 338 337 336 335 336 339 342 344 346 349 351 351 350 352 353 355 354 355 357 358 358 1 5 7 8 7 6 5 2 358 354 350 347 343 337 331 326 321 314
203 220 229 232 237 245 251 255 256 257 260 261 261 262 263 264 264 265 264 262 264 269 269 267 268 276 292 305 313 319 320 320 325 324 319 317 316 316 321 328 334 334 332 335 339 338 335 334 334 334 337 341 343 344 345 348 350 349 349 350 351 352 354 356 356 357 359 1 5 7 8 8 7 5 4 2 358 353 350 348 345 340 332 326 319
217 231 235 238 245 252 255 256 255 256 258 257 259 261 262 263 264 263 263 262 265 268 266 264 268 278 293 305 312 316 316 317 321 321 318 316 315 317 324 331 334 333 332 335 336 334 333 333 333 336 340 343 344 344 344 346 346 347 349 350 349 350 353 356 356 356 359 2 5 7 8 8 6 5 4 3 1 358 353 348 346 344 339 333 327
226 236 240 244 252 254 253 252 252 253 254 255 258 260 261 264 264 263 262 262 264 266 264 263 269 280 293 305 310 311 312 314 319 319 316 314 314 319 326 332 334 333 333 335 334 332 332 332 335 339 342 345 345 344 344 344 342 344 349 351 350 348 350 354 356 356 359 3 5 7 8 7 5 4 4 4 3 1 357 350 345 343 341 337 332
233 239 244 249 252 250 248 248 249 251 253 258 260 261 264 265 264 263 261 259 263 264 263 264 270 282 294 302 306 306 307 311 317 317 314 312 315 322 330 334 334 333 334 334 334 332 332 334 338 341 344 345 345 344 344 343 341 342 346 349 350 350 350 352 355 357 0 3 4 7 8 6 2 3 4 4 3 1 359 355 349 343 339 337 333
236 239 246 250 249 247 247 248 250 254 258 262 264 266 267 266 264 262 257 257 261 262 262 264 269 282 293 298 299 299 302 309 314 314 311 312 318 326 332 334 333 333 332 333 334 334 333 336 339 342 345 346 346 345 344 342 341 343 345 347 347 350 352 350 352 356 1 3 5 7 8 4 0 2 4 3 2 360 358 358 354 347 340 335 332
239 242 247 249 248 247 248 250 254 259 262 266 268 269 269 266 263 259 255 256 259 259 261 264 273 288 293 292 292 292 298 307 312 311 309 312 321 328 331 333 332 330 330 333 335 334 334 337 339 342 345 346 346 345 343 341 342 345 347 346 346 349 352 351 350 353 358 3 5 6 7 3 0 3 5 4 1 358 357 358 358 354 346 339 334
242 245 248 251 251 248 249 253 259 263 266 269 271 270 269 266 261 258 256 256 257 258 260 266 281 295 292 286 285 287 295 305 308 307 307 314 322 327 330 331 329 327 330 333 335 335 336 337 338 341 345 345 345 344 343 343 344 346 347 345 346 349 350 350 352 354 357 2 4 6 6 2 359 2 5 4 1 359 358 357 357 356 352 345 338
244 246 249 251 251 249 251 257 263 268 272 274 274 272 268 264 260 257 253 252 254 254 257 269 285 291 285 280 281 284 292 302 303 302 306 313 320 325 329 329 327 329 332 333 334 335 335 336 338 342 344 344 345 345 346 346 347 346 345 344 347 349 348 349 353 356 358 1 3 7 8 1 358 2 5 4 2 1 359 357 355 354 352 348 341
245 248 250 251 251 251 254 260 267 273 278 278 275 271 266 262 259 254 248 246 246 245 254 270 279 278 274 275 277 280 289 297 296 298 304 311 318 325 327 326 327 330 332 333 335 335 335 336 339 343 344 344 346 347 348 348 347 346 345 346 348 349 348 349 352 355 358 359 1 7 9 2 359 3 5 5 4 4 1 359 357 355 352 348 343
247 250 250 251 251 252 257 264 271 278 281 279 275 272 268 263 259 256 253 248 242 244 256 266 266 264 267 272 273 277 285 290 291 295 301 309 318 323 324 326 330 332 333 334 334 334 334 336 339 343 344 345 347 349 349 348 347 345 346 348 350 350 350 351 352 354 356 356 359 6 10 5 1 3 5 6 6 7 5 2 360 356 351 347 344
249 250 251 252 253 256 262 267 274 281 284 280 277 274 270 266 264 262 260 254 250 255 260 259 257 259 264 268 270 275 281 284 286 290 297 306 316 321 326 330 332 331 331 331 332 332 333 337 342 344 344 346 350 350 349 347 346 346 348 350 352 351 351 352 352 354 356 355 357 4 8 7 6 5 5 7 8 9 8 5 2 358 353 348 345
251 252 253 255 257 261 266 271 278 284 282 277 275 271 268 267 266 262 257 253 257 264 260 254 253 258 262 265 268 272 275 277 279 282 290 302 312 321 328 329 328 328 328 330 331 331 334 339 343 343 343 348 351 349 347 347 347 349 351 351 351 351 351 353 353 354 356 355 358 2 3 6 11 9 5 6 9 11 10 8 6 3 358 354 349
253 254 256 258 261 265 269 274 279 280 274 273 274 272 269 267 264 260 255 255 262 265 255 250 253 257 260 262 264 266 267 267 271 276 285 297 306 316 321 321 323 324 324 327 328 329 336 340 340 342 347 351 350 347 347 349 350 351 351 350 351 350 350 353 354 355 356 356 359 3 2 3 10 13 9 6 8 12 12 10 10 8 5 1 355
255 256 259 261 264 267 270 275 277 273 271 274 276 274 269 265 262 258 255 258 264 260 250 249 254 256 258 260 260 261 260 259 264 272 281 290 300 311 317 321 324 323 324 327 329 334 340 340 340 346 350 348 346 348 351 351 351 351 350 350 351 350 350 352 355 357 357 357 1 4 2 2 7 13 13 8 7 12 13 12 12 12 11 9 3
256 259 261 263 265 267 270 273 274 271 272 276 276 272 267 264 261 258 257 260 260 253 247 250 253 255 257 258 257 256 254 256 262 270 277 285 297 309 319 323 324 325 326 328 332 337 338 338 343 348 346 343 347 352 354 353 352 351 351 352 351 349 351 353 356 359 358 358 3 5 2 3 6 9 12 11 10 13 13 12 13 15 17 16 12
257 259 260 262 264 266 269 273 272 272 274 275 273 269 264 261 260 258 258 259 254 247 248 251 253 255 256 256 255 254 251 254 260 267 272 282 295 308 318 321 322 325 326 328 332 334 333 338 344 344 341 346 352 355 355 355 354 353 352 352 349 350 354 356 357 0 359 1 7 6 2 5 10 8 7 9 12 15 15 13 13 16 20 20 18
258 259 260 261 263 266 268 270 269 271 274 274 269 264 259 257 257 257 257 254 249 246 248 251 252 254 255 255 254 252 250 253 259 263 269 278 292 307 316 318 320 323 324 327 331 329 331 339 342 339 344 353 356 355 357 358 357 355 353 351 351 353 356 358 -0 0 360 5 11 8 2 6 12 11 7 6 8 13 16 16 15 17 21 22 20
Height
3174 3175 3175 3176 3177 3178 3179 3180 3180 3181 3181 3182 3183 3183 3182 3181 3181 3181 3181 3181 3182 3181 3181 3181 3181 3182 3181 3181 3181 3179 3178 3178 3177 3177 3176 3176 3175 3175 3174 3174 3173 3173 3172 3172 3171 3170 3170 3169 3168 3167 3166 3165 3164 3163 3162 3161 3160 3158 3157 3155 3154 3152 3151 3150 3148 3147 3146 3144 3143 3141 3140 3139 3138 3137 3136 3135 3134 3132 3131 3131 3130 3129 3128 3127 3127
3173 3174 3173 3173 3174 3176 3178 3180 3182 3183 3182 3183 3184 3184 3183 3181 3179 3180 3181 3181 3181 3181 3181 3181 3181 3181 3181 3181 3180 3178 3177 3177 3176 3176 3175 3175 3174 3174 3173 3173 3173 3172 3172 3171 3171 3170 3169 3168 3167 3166 3165 3164 3163 3162 3161 3160 3158 3157 3155 3154 3152 3151 3149 3148 3146 3145 3144 3142 3141 3139 3138 3137 3135 3134 3133 3132 3131 3130 3129 3128 3127 3127 3126 3125 3125
3173 3173 3171 3171 3174 3177 3180 3183 3183 3183 3182 3183 3184 3183 3183 3183 3178 3178 3181 3180 3180 3181 3181 3180 3180 3180 3180 3180 3179 3177 3177 3176 3175 3175 3175 3174 3174 3173 3173 3173 3173 3172 3171 3171 3170 3169 3168 3167 3166 3165 3164 3163 3162 3160 3159 3158 3157 3155 3154 3152 3150 3149 3147 3146 3144 3142 3141 3140 3138 3137 3136 3134 3133 3132 3130 3129 3129 3128 3127 3126 3125 3124 3124 3123 3122
3171 3170 3171 3174 3178 3179 3180 3181 3181 3181 3182 3181 3182 3182 3182 3182 3177 3177 3180 3180 3180 3180 3180 3180 3179 3179 3179 3178 3178 3177 3176 3176 3175 3174 3174 3174 3174 3173 3173 3172 3172 3171 3171 3170 3169 3168 3167 3166 3165 3164 3163 3162 3160 3159 3157 3156 3155 3153 3151 3150 3148 3146 3145 3143 3142 3140 3139 3138 3136 3135 3133 3132 3130 3129 3127 3126 3126 3125 3124 3123 3122 3122 3121 3121 3120
3168 3170 3175 3177 3177 3177 3177 3179 3179 3180 3180 3179 3180 3181 3182 3181 3177 3177 3180 3180 3179 3179 3179 3179 3178 3178 3178 3177 3177 3176 3175 3175 3174 3174 3173 3173 3172 3172 3172 3172 3172 3171 3170 3169 3168 3167 3166 3165 3164 3163 3162 3160 3159 3157 3155 3154 3153 3151 3149 3147 3145 3144 3142 3141 3140 3138 3136 3135 3133 3132 3131 3129 3127 3126 3125 3123 3123 3122 3121 3120 3119 3119 3118 3118 3117
3170 3174 3177 3175 3174 3175 3176 3177 3177 3177 3178 3178 3178 3178 3179 3181 3180 3178 3178 3179 3179 3178 3178 3177 3177 3177 3177 3176 3176 3176 3175 3175 3174 3174 3173 3173 3171 3170 3170 3170 3170 3170 3169 3169 3168 3166 3165 3163 3163 3161 3160 3158 3157 3155 3153 3152 3151 3149 3146 3145 3143 3141 3140 3138 3136 3135 3133 3132 3130 3129 3128 3126 3124 3123 3122 3121 3119 3119 3118 3117 3116 3116 3115 3115 3114
3172 3174 3174 3173 3174 3174 3175 3175 3176 3176 3176 3176 3177 3178 3178 3179 3181 3179 3177 3179 3178 3177 3177 3176 3176 3176 3176 3176 3175 3175 3175 3175 3174 3174 3173 3173 3171 3170 3169 3168 3168 3168 3167 3167 3167 3166 3164 3162 3161 3159 3158 3156 3155 3153 3151 3150 3148 3146 3144 3142 3141 3139 3137 3135 3133 3132 3130 3129 3127 3126 3125 3123 3121 3120 3119 3118 3116 3115 3115 3114 3113 3113 3112 3112 3111
3170 3172 3172 3172 3172 3173 3174 3174 3174 3174 3173 3174 3176 3177 3178 3179 3180 3178 3177 3178 3177 3176 3175 3175 3175 3175 3175 3175 3175 3175 3174 3174 3174 3173 3172 3172 3171 3170 3169 3168 3167 3166 3165 3164 3164 3163 3162 3161 3159 3157 3156 3154 3153 3151 3149 3148 3146 3143 3141 3139 3138 3136 3134 3132 3131 3129 3127 3126 3124 3123 3122 3120 3118 3117 3116 3114 3113 3112 3111 3110 3110 3109 3109 3108 3107
3169 3171 3172 3171 3170 3171 3173 3173 3172 3172 3173 3173 3174 3175 3177 3179 3179 3177 3177 3177 3176 3175 3174 3174 3174 3174 3175 3174 3174 3174 3173 3173 3173 3173 3171 3170 3170 3169 3169 3167 3166 3165 3164 3163 3162 3160 3159 3158 3157 3156 3154 3152 3151 3149 3147 3144 3142 3140 3138 3136 3135 3133 3131 3129 3128 3126 3124 3123 3121 3119 3118 3116 3115 3114 3112 3111 3110 3109 3107 3106 3106 3105 3105 3105 3104
3169 3170 3170 3169 3169 3170 3171 3171 3171 3172 3172 3173 3174 3175 3176 3178 3177 3175 3176 3176 3175 3174 3173 3173 3173 3173 3174 3173 3173 3173 3172 3172 3172 3171 3170 3169 3169 3168 3167 3166 3165 3164 3163 3161 3160 3159 3157 3156 3155 3154 3152 3150 3148 3147 3144 3141 3139 3137 3135 3133 3132 3130 3128 3127 3125 3123 3121 3120 3118 3116 3115 3113 3111 3110 3109 3108 3106 3105 3104 3103 3102 3101 3101 3100 3100
3168 3168 3168 3168 3168 3169 3169 3169 3170 3171 3171 3172 3173 3174 3175 3176 3175 3174 3174 3174 3174 3173 3172 3173 3173 3173 3173 3172 3172 3172 3171 3171 3170 3170 3169 3168 3167 3166 3166 3165 3164 3162 3161 3160 3158 3157 3155 3154 3153 3151 3149 3148 3145 3143 3141 3139 3137 3135 3133 3131 3130 3128 3126 3124 3122 3120 3118 3117 3115 3113 3112 3110 3108 3107 3105 3104 3103 3101 3100 3099 3098 3097 3097 3096 3096
3167 3167 3167 3167 3167 3167 3167 3168 3169 3169 3170 3170 3171 3173 3173 3173 3173 3172 3172 3173 3172 3172 3172 3172 3172 3172 3172 3171 3171 3170 3169 3169 3169 3168 3167 3166 3166 3165 3164 3163 3162 3161 3159 3158 3157 3155 3154 3152 3150 3148 3146 3144 3142 3140 3138 3137 3135 3133 3131 3129 3127 3125 3124 3122 3120 3118 3116 3114 3112 3110 3108 3106 3105 3103 3101 3100 3099 3097 3096 3095 3094 3093 3092 3092 3092
3165 3165 3166 3166 3166 3166 3166 3167 3167 3168 3169 3169 3170 3171 3171 3170 3171 3171 3171 3171 3171 3171 3171 3171 3171 3171 3171 3171 3170 3169 3168 3168 3167 3167 3166 3165 3164 3163 3162 3161 3160 3159 3158 3157 3155 3154 3152 3150 3148 3146 3144 3142 3140 3138 3136 3134 3133 3131 3130 3128 3126 3124 3122 3120 3117 3115 3113 3111 3109 3107 3104 3102 3101 3099 3097 3096 3094 3093 3092 3091 3090 3089 3088 3087 3087
3163 3163 3165 3165 3165 3165 3165 3166 3166 3167 3168 3169 3170 3169 3169 3169 3169 3169 3170 3170 3170 3170 3170 3170 3170 3170 3169 3169 3169 3168 3168 3167 3166 3165 3164 3163 3162 3161 3160 3159 3158 3157 3156 3155 3154 3152 3150 3148 3146 3144 3142 3140 3138 3136 3134 3133 3132 3130 3128 3126 3124 3122 3120 3118 3115 3113 3110 3108 3105 3103 3101 3098 3096 3095 3093 3091 3090 3088 3087 3086 3085 3084 3083 3082 3082
3161 3161 3163 3163 3163 3164 3164 3165 3165 3166 3167 3168 3168 3167 3167 3167 3168 3168 3169 3169 3169 3169 3169 3169 3168 3168 3168 3167 3167 3166 3166 3166 3165 3163 3162 3162 3160 3159 3158 3157 3156 3155 3154 3153 3151 3150 3148 3146 3144 3142 3140 3138 3136 3135 3133 3132 3131 3129 3127 3125 3123 3120 3118 3116 3113 3110 3108 3105 3102 3099 3097 3095 3092 3090 3088 3086 3085 3084 3082 3081 3080 3079 3079 3078 3077
3159 3159 3160 3162 3162 3162 3162 3163 3164 3165 3166 3166 3166 3166 3166 3166 3167 3168 3168 3168 3169 3169 3168 3168 3167 3166 3165 3165 3164 3164 3164 3164 3163 3162 3161 3160 3159 3157 3157 3156 3155 3154 3152 3151 3149 3148 3146 3144 3142 3140 3139 3137 3135 3134 3132 3131 3129 3127 3125 3122 3120 3118 3116 3113 3110 3108 3105 3102 3099 3096 3093 3091 3088 3086 3084 3082 3080 3079 3078 3077 3075 3075 3074 3073 3072
3158 3158 3159 3160 3160 3161 3161 3162 3163 3163 3164 3164 3165 3165 3165 3166 3166 3167 3167 3167 3168 3168 3167 3167 3166 3165 3164 3163 3162 3162 3162 3161 3161 3160 3159 3158 3157 3156 3155 3154 3153 3152 3150 3149 3147 3146 3144 3142 3141 3139 3138 3136 3134 3133 3131 3129 3127 3125 3122 3120 3118 3115 3113 3110 3107 3105 3102 3099 3096 3093 3090 3087 3084 3082 3079 3077 3075 3074 3073 3072 3071 3070 3069 3068 3067
3157 3157 3157 3157 3158 3159 3159 3160 3161 3162 3162 3163 3164 3164 3165 3165 3165 3165 3166 3166 3166 3166 3166 3166 3165 3164 3163 3161 3160 3160 3159 3159 3159 3158 3158 3157 3156 3155 3154 3153 3152 3150 3149 3147 3145 3144 3142 3141 3139 3138 3136 3134 3133 3131 3129 3127 3125 3123 3121 3119 3116 3113 3110 3108 3105 3102 3099 3096 3093 3089 3086 3083 3080 3077 3074 3072 3070 3068 3067 3066 3065 3064 3063 3063 3062
3155 3155 3155 3155 3156 3156 3158 3159 3160 3161 3162 3162 3163 3164 3164 3164 3165 3165 3165 3165 3165 3165 3165 3164 3163 3162 3162 3161 3159 3158 3158 3157 3157 3156 3157 3156 3155 3154 3152 3151 3150 3149 3147 3146 3144 3142 3141 3140 3139 3137 3135 3134 3132 3130 3128 3126 3124 3121 3119 3116 3113 3111 3108 3105 3103 3099 3096 3093 3090 3086 3082 3079 3075 3071 3068 3066 3064 3062 3060 3060 3059 3059 3058 3057 3056
3153 3153 3153 3154 3154 3155 3156 3158 3159 3160 3161 3161 3162 3163 3163 3163 3164 3164 3164 3164 3164 3164 3163 3163 3162 3161 3161 3160 3158 3157 3157 3156 3155 3154 3154 3154 3154 3153 3151 3149 3148 3147 3146 3144 3142 3141 3141 3139 3137 3135 3134 3131 3129 3127 3125 3123 3121 3119 3116 3114 3112 3109 3106 3103 3100 3097 3093 3090 3086 3082 3078 3074 3070 3066 3063 3060 3058 3056 3055 3053 3053 3052 3052 3051 3051
3151 3151 3151 3152 3153 3154 3156 3157 3158 3159 3160 3161 3161 3162 3162 3162 3162 3163 3163 3163 3162 3162 3162 3161 3161 3160 3159 3159 3158 3157 3156 3155 3154 3153 3152 3151 3151 3151 3150 3149 3148 3146 3144 3143 3142 3141 3139 3137 3135 3133 3131 3129 3127 3125 3124 3122 3120 3118 3115 3113 3110 3107 3103 3100 3097 3093 3090 3085 3081 3077 3073 3069 3065 3062 3059 3056 3053 3051 3050 3048 3047 3046 3046 3046 3045
3149 3149 3150 3150 3152 3153 3155 3156 3157 3158 3159 3160 3160 3161 3161 3161 3161 3161 3161 3161 3161 3161 3160 3160 3160 3159 3158 3158 3157 3156 3155 3154 3153 3153 3151 3149 3148 3148 3147 3147 3147 3145 3143 3141 3141 3139 3136 3134 3133 3131 3129 3128 3126 3125 3123 3121 3118 3116 3113 3110 3107 3104 3100 3097 3093 3089 3085 3080 3076 3072 3068 3064 3061 3058 3054 3052 3049 3047 3045 3044 3042 3040 3040 3040 3039
3147 3148 3148 3149 3151 3152 3154 3155 3156 3157 3158 3159 3159 3159 3159 3160 3160 3160 3160 3160 3160 3159 3159 3159 3158 3158 3157 3156 3156 3155 3154 3154 3153 3152 3150 3149 3148 3146 3145 3143 3143 3142 3141 3140 3139 3137 3134 3133 3131 3130 3128 3127 3125 3124 3122 3120 3117 3114 3112 3109 3105 3101 3098 3094 3090 3085 3081 3076 3072 3068 3063 3060 3056 3053 3050 3047 3045 3043 3041 3039 3037 3036 3035 3034 3033
3146 3146 3147 3148 3150 3151 3153 3154 3155 3156 3156 3157 3157 3157 3158 3158 3159 3159 3159 3159 3158 3158 3158 3157 3157 3156 3156 3155 3155 3154 3153 3153 3152 3150 3149 3148 3146 3145 3143 3141 3139 3139 3139 3138 3136 3134 3134 3132 3131 3129 3128 3126 3125 3123 3121 3119 3116 3114 3111 3107 3104 3100 3096 3092 3088 3083 3079 3074 3070 3065 3060 3057 3053 3050 3046 3043 3041 3039 3036 3035 3033 3031 3030 3029 3028
3144 3145 3145 3147 3149 3150 3152 3153 3154 3154 3155 3156 3156 3157 3157 3157 3157 3157 3157 3157 3157 3157 3157 3156 3156 3155 3154 3154 3154 3153 3152 3151 3150 3149 3148 3146 3145 3144 3142 3141 3139 3137 3136 3136 3135 3134 3133 3132 3130 3129 3128 3127 3125 3123 3121 3119 3116 3113 3110 3106 3102 3099 3095 3091 3086 3082 3078 3073 3068 3064 3059 3055 3051 3047 3044 3040 3037 3035 3033 3031 3029 3027 3026 3024 3023
3142 3143 3144 3146 3148 3149 3151 3152 3153 3153 3154 3155 3155 3156 3156 3156 3156 3156 3156 3156 3156 3156 3155 3155 3154 3154 3154 3153 3152 3151 3150 3150 3148 3147 3146 3145 3144 3143 3142 3141 3139 3138 3136 3135 3135 3134 3133 3132 3131 3129 3128 3127 3125 3123 3121 3118 3115 3112 3108 3105 3101 3097 3093 3089 3085 3081 3077 3072 3067 3062 3057 3053 3049 3045 3041 3038 3035 3032 3029 3027 3025 3023 3022 3021 3020
3141 3142 3143 3145 3147 3149 3150 3151 3152 3153 3154 3154 3155 3155 3155 3155 3155 3155 3155 3155 3155 3154 3154 3154 3153 3153 3153 3152 3151 3150 3149 3148 3147 3145 3145 3144 3143 3142 3141 3140 3139 3138 3137 3136 3135 3134 3132 3131 3130 3129 3128 3126 3124 3122 3120 3117 3114 3111 3107 3104 3100 3096 3092 3088 3084 3080 3075 3070 3065 3060 3055 3051 3047 3043 3039 3036 3033 3029 3026 3024 3021 3020 3018 3017 3016
3140 3141 3143 3144 3146 3148 3149 3151 3151 3152 3153 3153 3154 3154 3154 3154 3154 3154 3154 3154 3154 3153 3153 3153 3152 3152 3151 3150 3149 3148 3147 3146 3145 3144 3144 3143 3142 3141 3140 3139 3138 3137 3136 3135 3134 3133 3132 3130 3129 3128 3127 3125 3123 3121 3119 3116 3113 3110 3106 3103 3099 3095 3091 3087 3083 3079 3074 3069 3064 3058 3053 3049 3045 3041 3037 3034 3030 3027 3024 3021 3018 3016 3015 3013 3012
3140 3141 3142 3144 3145 3147 3149 3150 3151 3151 3152 3152 3152 3153 3153 3153 3153 3153 3153 3153 3152 3152 3152 3152 3151 3151 3150 3148 3147 3147 3146 3145 3144 3144 3143 3142 3141 3140 3139 3138 3137 3137 3136 3135 3133 3132 3131 3130 3128 3128 3126 3125 3123 3120 3118 3115 3112 3109 3105 3102 3098 3094 3090 3086 3082 3078 3073 3068 3063 3058 3052 3047 3043 3039 3035 3032 3028 3025 3022 3018 3016 3013 3011 3009 3008
3139 3140 3142 3144 3145 3146 3148 3148 3149 3150 3150 3151 3151 3151 3151 3151 3152 3151 3151 3151 3151 3151 3151 3150 3150 3149 3148 3147 3146 3145 3145 3144 3144 3143 3142 3141 3140 3139 3139 3138 3137 3136 3135 3134 3133 3131 3130 3129 3128 3127 3126 3124 3122 3119 3117 3114 3111 3108 3104 3101 3098 3094 3090 3086 3082 3077 3073 3068 3063 3058 3052 3047 3042 3038 3034 3030 3026 3023 3019 3016 3013 3010 3008 3006 3004
3137 3139 3141 3143 3144 3145 3146 3147 3148 3149 3149 3149 3150 3150 3150 3150 3150 3150 3150 3150 3150 3150 3149 3149 3149 3147 3147 3146 3145 3144 3144 3143 3143 3142 3141 3140 3139 3138 3138 3137 3136 3135 3134 3133 3132 3131 3130 3128 3127 3126 3125 3123 3121 3118 3115 3112 3110 3107 3103 3100 3096 3093 3090 3085 3081 3077 3072 3068 3063 3058 3053 3047 3042 3037 3033 3028 3024 3021 3017 3013 3010 3007 3005 3003 3001
3136 3138 3140 3142 3143 3144 3145 3146 3147 3147 3148 3148 3148 3148 3149 3149 3149 3149 3149 3149 3149 3148 3148 3148 3147 3146 3146 3145 3144 3143 3143 3142 3142 3141 3139 3139 3138 3138 3137 3136 3135 3134 3133 3132 3131 3130 3129 3128 3127 3125 3124 3122 3119 3117 3114 3111 3108 3105 3102 3099 3095 3092 3089 3085 3080 3076 3072 3067 3062 3057 3052 3047 3042 3037 3031 3027 3022 3018 3014 3011 3007 3005 3002 3000 2998
3135 3137 3139 3141 3142 3143 3144 3145 3145 3146 3146 3146 3147 3147 3147 3147 3147 3147 3147 3147 3147 3147 3147 3146 3146 3145 3144 3144 3143 3142 3142 3141 3140 3139 3138 3138 3138 3137 3136 3135 3134 3133 3132 3131 3130 3129 3128 3126 3125 3124 3122 3120 3118 3115 3112 3110 3107 3104 3101 3097 3094 3091 3087 3083 3079 3075 3071 3067 3062 3057 3052 3047 3041 3036 3030 3025 3020 3016 3012 3008 3005 3002 2999 2997 2995
3135 3137 3139 3140 3141 3142 3143 3143 3144 3144 3144 3145 3145 3146 3146 3146 3146 3146 3146 3146 3146 3146 3145 3145 3145 3144 3143 3142 3142 3141 3141 3140 3139 3138 3138 3137 3137 3136 3135 3134 3133 3132 3131 3130 3129 3128 3127 3126 3124 3123 3121 3118 3116 3113 3111 3108 3105 3102 3099 3096 3092 3089 3086 3082 3078 3074 3070 3065 3060 3056 3051 3046 3040 3035 3030 3024 3019 3015 3010 3006 3003 3000 2997 2994 2992
3135 3137 3138 3139 3140 3140 3141 3141 3142 3142 3143 3143 3144 3144 3144 3144 3144 3144 3145 3145 3145 3144 3144 3144 3143 3143 3142 3141 3140 3140 3139 3139 3138 3137 3137 3136 3136 3135 3134 3133 3132 3131 3130 3129 3128 3127 3126 3125 3123 3122 3120 3117 3115 3112 3109 3107 3104 3101 3098 3094 3091 3088 3085 3081 3076 3072 3068 3063 3058 3054 3049 3044 3039 3034 3029 3024 3019 3014 3009 3005 3002 2998 2995 2992 2989
3135 3136 3137 3138 3138 3139 3139 3140 3140 3141 3141 3142 3142 3142 3143 3143 3143 3143 3143 3143 3143 3143 3143 3142 3142 3141 3140 3140 3139 3138 3138 3137 3137 3136 3136 3135 3135 3134 3133 3132 3131 3130 3129 3128 3127 3126 3125 3123 3122 3120 3118 3116 3113 3111 3108 3105 3103 3100 3097 3093 3089 3086 3083 3079 3075 3071 3066 3062 3057 3052 3047 3042 3038 3034 3029 3024 3018 3013 3009 3004 3000 2997 2993 2990 2987
3134 3135 3135 3136 3137 3137 3138 3138 3139 3139 3140 3140 3140 3141 3141 3141 3141 3141 3142 3142 3142 3142 3141 3141 3141 3140 3139 3138 3137 3137 3137 3136 3135 3135 3134 3134 3134 3133 3132 3131 3130 3129 3128 3127 3126 3125 3123 3122 3120 3118 3116 3114 3112 3110 3107 3104 3101 3098 3095 3092 3088 3084 3080 3078 3074 3069 3065 3060 3055 3051 3046 3041 3038 3033 3028 3022 3018 3013 3008 3003 2999 2995 2991 2988 2985
3133 3133 3134 3134 3135 3136 3136 3137 3137 3138 3138 3139 3139 3139 3139 3139 3140 3140 3140 3140 3140 3140 3140 3139 3139 3138 3137 3137 3136 3136 3135 3135 3134 3133 3133 3133 3132 3131 3130 3129 3128 3128 3127 3126 3124 3123 3122 3120 3119 3117 3115 3113 3111 3108 3106 3103 3099 3095 3092 3089 3086 3082 3078 3075 3072 3068 3063 3058 3054 3050 3045 3041 3037 3032 3026 3021 3017 3013 3008 3003 2998 2994 2990 2986 2983
3131 3132 3132 3133 3134 3134 3135 3135 3136 3136 3137 3137 3137 3138 3138 3138 3138 3138 3139 3139 3138 3138 3138 3138 3137 3137 3136 3135 3135 3135 3134 3133 3133 3132 3132 3132 3131 3130 3129 3128 3127 3126 3125 3124 3123 3122 3121 3119 3117 3115 3113 3111 3109 3107 3104 3102 3098 3094 3090 3086 3083 3080 3076 3072 3069 3066 3062 3058 3053 3049 3045 3042 3038 3032 3026 3020 3016 3012 3007 3003 2998 2993 2989 2985 2981
3129 3130 3131 3132 3132 3132 3133 3134 3134 3135 3135 3135 3136 3136 3136 3136 3137 3137 3137 3137 3136 3136 3136 3136 3136 3135 3135 3134 3134 3133 3133 3132 3131 3131 3131 3130 3129 3128 3128 3127 3126 3125 3124 3123 3122 3121 3119 3118 3116 3114 3112 3110 3108 3105 3103 3100 3097 3092 3088 3084 3080 3077 3074 3071 3067 3064 3061 3057 3053 3048 3045 3042 3037 3031 3025 3020 3015 3010 3005 3000 2996 2992 2987 2983 2979
3127 3128 3129 3130 3130 3131 3132 3132 3133 3133 3133 3134 3134 3134 3134 3135 3135 3135 3135 3135 3135 3135 3135 3135 3135 3135 3134 3133 3133 3132 3131 3130 3130 3130 3130 3129 3128 3127 3127 3126 3125 3124 3123 3122 3121 3119 3118 3116 3114 3112 3110 3108 3106 3103 3101 3097 3094 3090 3086 3083 3079 3075 3072 3070 3066 3062 3059 3055 3052 3048 3043 3040 3035 3030 3025 3019 3014 3009 3003 2998 2993 2988 2984 2981 2977
3126 3127 3128 3128 3129 3129 3130 3130 3131 3131 3131 3132 3132 3132 3132 3132 3133 3133 3133 3133 3133 3133 3133 3133 3133 3133 3133 3132 3132 3131 3130 3129 3129 3129 3129 3128 3127 3126 3126 3125 3124 3123 3121 3120 3119 3118 3117 3115 3113 3111 3108 3106 3104 3101 3099 3096 3092 3089 3085 3081 3077 3073 3070 3067 3063 3060 3056 3053 3050 3047 3043 3039 3034 3029 3024 3019 3014 3008 3002 2997 2991 2986 2982 2978 2974
3124 3125 3126 3126 3127 3127 3128 3128 3129 3129 3130 3130 3130 3130 3130 3130 3130 3130 3130 3130 3130 3131 3131 3131 3131 3131 3131 3131 3130 3130 3129 3128 3128 3128 3127 3127 3126 3125 3125 3124 3123 3122 3120 3119 3118 3117 3115 3113 3112 3109 3107 3105 3102 3099 3097 3095 3091 3088 3084 3080 3075 3071 3067 3063 3060 3057 3054 3051 3049 3046 3043 3039 3033 3028 3023 3019 3014 3008 3002 2996 2990 2984 2979 2975 2970
3122 3123 3124 3124 3125 3125 3126 3127 3127 3127 3128 3127 3127 3128 3128 3128 3129 3128 3128 3128 3128 3129 3129 3129 3129 3129 3129 3129 3129 3128 3127 3127 3127 3127 3126 3126 3125 3124 3124 3123 3122 3120 3119 3118 3117 3116 3114 3112 3110 3108 3106 3103 3100 3098 3095 3093 3090 3087 3083 3078 3074 3070 3066 3062 3058 3055 3052 3050 3047 3044 3042 3039 3033 3027 3023 3019 3014 3008 3003 2997 2990 2984 2978 2973 2968
3120 3121 3122 3122 3123 3124 3124 3125 3125 3125 3126 3125 3125 3126 3126 3126 3127 3127 3127 3127 3127 3127 3127 3127 3127 3127 3127 3127 3127 3127 3126 3125 3125 3125 3125 3125 3124 3123 3123 3122 3120 3119 3118 3117 3116 3115 3113 3111 3109 3107 3104 3102 3099 3096 3094 3091 3088 3085 3081 3077 3073 3070 3066 3062 3058 3054 3052 3049 3045 3042 3041 3039 3033 3027 3022 3019 3014 3008 3003 2997 2991 2985 2979 2973 2967
3119 3119 3120 3120 3121 3121 3122 3122 3123 3123 3123 3123 3123 3123 3123 3124 3124 3124 3124 3125 3125 3125 3125 3125 3125 3125 3126 3126 3126 3125 3124 3124 3124 3124 3124 3124 3123 3122 3121 3121 3120 3119 3118 3116 3115 3113 3112 3109 3108 3106 3103 3101 3098 3095 3093 3090 3086 3082 3078 3075 3072 3069 3066 3062 3058 3055 3052 3048 3044 3041 3039 3037 3033 3028 3022 3018 3014 3009 3004 2999 2992 2986 2980 2973 2966
3116 3117 3118 3118 3119 3119 3119 3120 3121 3121 3120 3120 3120 3121 3121 3121 3121 3122 3122 3122 3123 3123 3123 3123 3124 3124 3124 3124 3124 3123 3123 3123 3123 3123 3123 3122 3122 3121 3121 3120 3119 3118 3117 3115 3114 3112 3110 3109 3107 3105 3103 3100 3097 3094 3091 3088 3084 3081 3077 3074 3071 3068 3065 3062 3059 3055 3052 3048 3044 3041 3038 3035 3032 3029 3023 3018 3014 3009 3004 2999 2994 2988 2981 2973 2967
3114 3115 3115 3116 3116 3116 3117 3118 3118 3118 3117 3117 3118 3118 3118 3118 3119 3119 3120 3120 3121 3121 3121 3121 3121 3122 3122 3122 3122 3122 3122 3121 3122 3122 3121 3121 3120 3120 3119 3118 3117 3117 3116 3114 3113 3111 3109 3108 3106 3104 3101 3099 3097 3093 3090 3086 3083 3080 3077 3074 3070 3067 3064 3061 3058 3054 3050 3047 3044 3041 3038 3034 3031 3028 3025 3019 3013 3008 3004 3000 2996 2989 2982 2975 2968
3112 3112 3112 3113 3113 3113 3114 3115 3115 3115 3115 3115 3115 3115 3115 3116 3116 3117 3117 3118 3118 3118 3119 3119 3119 3119 3120 3120 3120 3120 3120 3120 3120 3120 3119 3119 3119 3118 3117 3117 3116 3115 3114 3113 3112 3110 3109 3107 3105 3103 3101 3099 3096 3092 3089 3086 3082 3079 3076 3072 3069 3066 3063 3060 3057 3053 3050 3047 3043 3040 3038 3034 3029 3026 3024 3021 3015 3008 3004 3001 2996 2990 2984 2977 2971
3109 3109 3109 3110 3110 3111 3111 3112 3112 3111 3112 3112 3112 3112 3112 3113 3114 3114 3115 3115 3116 3116 3116 3117 3117 3117 3118 3118 3118 3118 3118 3118 3118 3118 3118 3117 3117 3116 3115 3115 3114 3113 3113 3112 3110 3109 3108 3106 3104 3103 3101 3098 3095 3091 3088 3085 3082 3078 3075 3071 3069 3066 3063 3059 3056 3053 3051 3047 3043 3040 3037 3034 3030 3025 3022 3019 3016 3011 3006 3001 2996 2990 2984 2978 2973
3105 3106 3106 3107 3107 3108 3108 3109 3109 3108 3109 3109 3109 3109 3110 3110 3111 3112 3112 3112 3113 3114 3114 3115 3115 3115 3116 3116 3116 3116 3116 3116 3116 3116 3116 3115 3115 3114 3114 3113 3113 3112 3111 3110 3109 3108 3106 3105 3104 3102 3099 3096 3094 3091 3088 3085 3082 3079 3075 3072 3069 3065 3062 3059 3056 3053 3050 3046 3043 3040 3037 3033 3030 3026 3021 3016 3013 3010 3007 3002 2996 2990 2984 2979 2974